Location: Andrest
(43.3200°N, 0.0641°E)
Time: 21:48:15
(UTC+00:00)

Meteor 1-10 Rocket - Pass Details

Date: 01 December 2020
Orbit: 836 x 910 km, 81.3° (Epoch: 20 January)

Event Time Altitude Azimuth Distance (km) Brightness Sun altitude
Rises 18:16:21 0° 181° (S) 3,429 7.5 -19.7°
Reaches altitude 10° 18:18:47 10° 179° (S) 2,486 6.8 -20.1°
Maximum altitude 18:24:23 69° 97° (E) 906 4.1 -21.1°
Enters shadow 18:28:27 19° 17° (NNE) 1,919 5.8 -21.8°
